TimeCDT,TemperatureF,Dew PointF,Humidity,Sea Level PressureIn,VisibilityMPH,Wind Direction,Wind SpeedMPH,Gust SpeedMPH,PrecipitationIn,Events,Conditions,WindDirDegrees,DateUTC
12:15 AM,22.1,15.3,75,30.35,10.0,North,9.2,-,N/A,,Clear,360,2013-03-20 05:15:00
12:35 AM,21.4,14.7,75,30.36,10.0,North,10.4,-,N/A,,Clear,360,2013-03-20 05:35:00
12:55 AM,21.0,14.0,74,30.36,10.0,NNW,9.2,-,N/A,,Clear,340,2013-03-20 05:55:00
1:15 AM,20.7,14.0,75,30.36,10.0,NNW,8.1,-,N/A,,Clear,340,2013-03-20 06:15:00
1:35 AM,20.1,14.0,77,30.37,10.0,North,9.2,-,N/A,,Clear,350,2013-03-20 06:35:00
1:55 AM,19.8,14.0,78,30.37,10.0,North,4.6,-,N/A,,Clear,350,2013-03-20 06:55:00
2:15 AM,19.0,13.6,79,30.38,10.0,NNW,5.8,-,N/A,,Clear,340,2013-03-20 07:15:00
2:35 AM,19.0,13.8,80,30.38,10.0,NNW,5.8,-,N/A,,Clear,340,2013-03-20 07:35:00
2:55 AM,18.9,13.8,81,30.38,10.0,NNW,6.9,-,N/A,,Clear,340,2013-03-20 07:55:00
3:15 AM,18.5,13.6,81,30.38,10.0,NNW,8.1,-,N/A,,Clear,330,2013-03-20 08:15:00
3:35 AM,17.6,13.3,83,30.38,10.0,NW,5.8,-,N/A,,Clear,320,2013-03-20 08:35:00
3:55 AM,16.7,13.1,86,30.38,10.0,NW,5.8,-,N/A,,Clear,310,2013-03-20 08:55:00
4:15 AM,16.0,12.2,85,30.38,10.0,NW,4.6,-,N/A,,Clear,310,2013-03-20 09:15:00
4:35 AM,16.5,12.7,85,30.38,10.0,WNW,4.6,-,N/A,,Clear,300,2013-03-20 09:35:00
4:55 AM,16.3,12.2,84,30.38,10.0,NW,4.6,-,N/A,,Clear,320,2013-03-20 09:55:00
5:15 AM,16.7,12.0,82,30.38,10.0,NNW,9.2,-,N/A,,Clear,330,2013-03-20 10:15:00
5:35 AM,16.5,11.1,79,30.37,10.0,NNW,5.8,-,N/A,,Clear,340,2013-03-20 10:35:00
5:55 AM,16.0,10.6,79,30.38,10.0,NW,4.6,-,N/A,,Clear,320,2013-03-20 10:55:00
6:15 AM,14.9,10.0,81,30.38,10.0,WNW,3.5,-,N/A,,Clear,300,2013-03-20 11:15:00
6:35 AM,14.2,9.5,82,30.38,10.0,Calm,Calm,-,N/A,,Clear,0,2013-03-20 11:35:00
6:55 AM,14.4,9.5,81,30.38,10.0,Calm,Calm,-,N/A,,Clear,0,2013-03-20 11:55:00
7:15 AM,13.6,8.6,80,30.38,10.0,Calm,Calm,-,N/A,,Clear,0,2013-03-20 12:15:00
7:35 AM,13.6,8.4,80,30.37,10.0,Calm,Calm,-,N/A,,Clear,0,2013-03-20 12:35:00
7:55 AM,13.1,8.1,80,30.37,10.0,Calm,Calm,-,N/A,,Clear,0,2013-03-20 12:55:00
8:15 AM,14.0,8.8,80,30.37,10.0,Calm,Calm,-,N/A,,Clear,0,2013-03-20 13:15:00
8:35 AM,15.8,9.7,77,30.37,10.0,NNW,3.5,-,N/A,,Clear,330,2013-03-20 13:35:00
8:55 AM,17.1,9.7,73,30.37,10.0,WNW,5.8,-,N/A,,Clear,290,2013-03-20 13:55:00
9:15 AM,17.6,9.7,71,30.37,10.0,NW,6.9,-,N/A,,Clear,310,2013-03-20 14:15:00
9:35 AM,18.9,9.9,68,30.37,10.0,NNW,6.9,-,N/A,,Clear,330,2013-03-20 14:35:00
9:55 AM,19.4,9.3,65,30.37,10.0,NW,5.8,-,N/A,,Clear,320,2013-03-20 14:55:00
10:15 AM,21.0,9.0,60,30.37,10.0,North,6.9,-,N/A,,Clear,350,2013-03-20 15:15:00
10:55 AM,23.5,10.0,56,30.36,10.0,NW,9.2,-,N/A,,Clear,320,2013-03-20 15:55:00
11:15 AM,23.7,9.5,55,30.36,10.0,WNW,6.9,-,N/A,,Clear,290,2013-03-20 16:15:00
11:35 AM,25.2,10.0,53,30.36,10.0,WNW,4.6,-,N/A,,Clear,290,2013-03-20 16:35:00
11:55 AM,25.7,9.9,51,30.34,10.0,North,4.6,-,N/A,,Clear,360,2013-03-20 16:55:00
12:15 PM,28.0,9.7,46,30.33,10.0,North,6.9,-,N/A,,Clear,350,2013-03-20 17:15:00
12:35 PM,28.8,9.1,44,30.32,10.0,WNW,6.9,-,N/A,,Clear,290,2013-03-20 17:35:00
12:55 PM,29.7,9.1,42,30.30,10.0,NNW,5.8,-,N/A,,Clear,330,2013-03-20 17:55:00
1:15 PM,31.6,9.3,39,30.29,10.0,NNW,6.9,-,N/A,,Clear,340,2013-03-20 18:15:00
1:35 PM,32.0,9.0,38,30.27,10.0,NW,5.8,-,N/A,,Clear,320,2013-03-20 18:35:00
1:55 PM,32.5,9.3,38,30.26,10.0,NW,6.9,-,N/A,,Clear,320,2013-03-20 18:55:00
2:15 PM,34.0,9.3,36,30.24,10.0,North,3.5,-,N/A,,Clear,360,2013-03-20 19:15:00
2:35 PM,34.9,9.3,35,30.22,10.0,WNW,5.8,-,N/A,,Clear,300,2013-03-20 19:35:00
2:55 PM,36.9,9.5,32,30.20,10.0,NNW,8.1,-,N/A,,Clear,330,2013-03-20 19:55:00
3:15 PM,37.9,9.3,31,30.19,10.0,West,5.8,-,N/A,,Clear,280,2013-03-20 20:15:00
3:35 PM,37.6,8.8,30,30.18,10.0,North,4.6,-,N/A,,Clear,360,2013-03-20 20:35:00
3:55 PM,37.2,8.1,30,30.17,10.0,SW,3.5,-,N/A,,Clear,220,2013-03-20 20:55:00
4:15 PM,38.3,8.4,29,30.16,10.0,Calm,Calm,-,N/A,,Clear,0,2013-03-20 21:15:00
4:35 PM,38.5,8.1,28,30.15,10.0,Calm,Calm,-,N/A,,Clear,0,2013-03-20 21:35:00
4:55 PM,39.6,8.6,28,30.13,10.0,North,3.5,-,N/A,,Clear,10,2013-03-20 21:55:00
5:15 PM,39.2,8.4,28,30.12,10.0,NNE,3.5,-,N/A,,Clear,30,2013-03-20 22:15:00
5:35 PM,39.9,8.6,28,30.11,10.0,NNW,3.5,-,N/A,,Clear,340,2013-03-20 22:35:00
5:55 PM,39.9,8.6,28,30.11,10.0,Calm,Calm,-,N/A,,Clear,0,2013-03-20 22:55:00
6:15 PM,39.4,8.4,28,30.10,10.0,Calm,Calm,-,N/A,,Clear,0,2013-03-20 23:15:00
6:35 PM,39.2,8.6,28,30.10,10.0,ENE,3.5,-,N/A,,Clear,60,2013-03-20 23:35:00
6:55 PM,37.6,9.1,31,30.09,10.0,East,5.8,-,N/A,,Clear,80,2013-03-20 23:55:00
7:15 PM,36.5,9.7,33,30.09,10.0,East,5.8,-,N/A,,Clear,90,2013-03-21 00:15:00
7:35 PM,33.1,10.4,39,30.08,10.0,East,8.1,-,N/A,,Clear,80,2013-03-21 00:35:00
7:55 PM,30.9,10.8,43,30.08,10.0,East,8.1,-,N/A,,Clear,90,2013-03-21 00:55:00
8:15 PM,29.7,10.2,44,30.07,10.0,East,9.2,-,N/A,,Clear,80,2013-03-21 01:15:00
8:35 PM,28.6,11.1,48,30.07,10.0,East,8.1,-,N/A,,Clear,90,2013-03-21 01:35:00
8:55 PM,28.0,10.8,48,30.07,10.0,East,9.2,-,N/A,,Clear,80,2013-03-21 01:55:00
9:15 PM,28.2,11.1,49,30.06,10.0,East,10.4,-,N/A,,Scattered Clouds,80,2013-03-21 02:15:00
9:35 PM,28.2,11.1,49,30.05,10.0,East,9.2,-,N/A,,Scattered Clouds,90,2013-03-21 02:35:00
9:55 PM,27.5,11.3,51,30.05,10.0,East,8.1,-,N/A,,Scattered Clouds,100,2013-03-21 02:55:00
10:15 PM,27.1,11.3,51,30.05,10.0,East,10.4,-,N/A,,Scattered Clouds,90,2013-03-21 03:15:00
10:35 PM,26.6,12.2,55,30.05,10.0,East,9.2,-,N/A,,Clear,90,2013-03-21 03:35:00
10:55 PM,26.2,12.2,55,30.05,10.0,East,9.2,-,N/A,,Clear,90,2013-03-21 03:55:00
11:15 PM,26.2,11.8,55,30.05,10.0,East,9.2,-,N/A,,Clear,100,2013-03-21 04:15:00
11:35 PM,25.7,12.2,57,30.05,10.0,ESE,9.2,-,N/A,,Clear,110,2013-03-21 04:35:00
11:55 PM,25.7,12.2,57,30.05,10.0,East,6.9,-,N/A,,Scattered Clouds,100,2013-03-21 04:55:00